• In Netherlands
  • List of Countries
  • For 7 days
  • Water Temperature
  • Satellite Maps
  • Weather Map
  • Weather Widgets
  • user-avatar
    Login

    Hourly Weather Ganja

    Today, 19 February, Sunday

    Time Temperature Precipitation Wind Pressure Humidity
    00:00 -2°C° 0 mm 1 mps 734 mmHg 73%
    01:00 -4°C° 0 mm 2 mps 734 mmHg 72%
    02:00 -4°C° 0 mm 2 mps 734 mmHg 70%
    03:00 -3°C° 0 mm 2 mps 734 mmHg 67%
    04:00 -4°C° 0 mm 3 mps 734 mmHg 67%
    05:00 -4°C° 0 mm 3 mps 734 mmHg 68%
    06:00 -4°C° 0 mm 3 mps 734 mmHg 68%
    07:00 -1°C° 0 mm 3 mps 734 mmHg 67%
    08:00 +1°C° 0 mm 3 mps 734 mmHg 66%
    09:00 +2°C° 0 mm 3 mps 734 mmHg 65%
    10:00 +5°C° 0 mm 2 mps 734 mmHg 64%
    11:00 +6°C° 0 mm 2 mps 734 mmHg 63%
    12:00 +7°C° 0 mm 2 mps 733 mmHg 61%
    13:00 +7°C° 0 mm 2 mps 733 mmHg 62%
    14:00 +8°C° 0 mm 2 mps 733 mmHg 63%
    15:00 +8°C° 0 mm 2 mps 733 mmHg 64%
    16:00 +6°C° 0 mm 1 mps 733 mmHg 69%
    17:00 +3°C° 0 mm 1 mps 733 mmHg 74%
    18:00 -2°C° 0 mm 0 mps 732 mmHg 79%
    19:00 -2°C° 0 mm 0 mps 733 mmHg 78%
    20:00 -1°C° 0 mm 1 mps 733 mmHg 78%
    21:00 -1°C° 0 mm 1 mps 733 mmHg 78%
    22:00 -1°C° 0 mm 1 mps 733 mmHg 79%
    23:00 -1°C° 0 mm 1 mps 733 mmHg 80%

    Tomorrow, 20 February, Monday

    Time Temperature Precipitation Wind Pressure Humidity
    00:00 -1°C° 0 mm 1 mps 734 mmHg 81%
    01:00 -1°C° 0 mm 1 mps 734 mmHg 82%
    02:00 -1°C° 0 mm 1 mps 734 mmHg 82%
    03:00 -1°C° 0 mm 1 mps 734 mmHg 83%
    04:00 -1°C° 0 mm 1 mps 733 mmHg 81%
    05:00 -1°C° 0 mm 1 mps 733 mmHg 80%
    06:00 -1°C° 0 mm 1 mps 733 mmHg 79%
    07:00 +1°C° 0 mm 1 mps 733 mmHg 75%
    08:00 +3°C° 0 mm 1 mps 733 mmHg 72%
    09:00 +5°C° 0 mm 1 mps 733 mmHg 69%
    10:00 +6°C° 0 mm 1 mps 733 mmHg 66%
    11:00 +7°C° 0 mm 1 mps 732 mmHg 63%
    12:00 +9°C° 0 mm 1 mps 731 mmHg 60%
    13:00 +9°C° 0 mm 1 mps 731 mmHg 60%
    14:00 +9°C° 0 mm 1 mps 730 mmHg 60%
    15:00 +9°C° 0 mm 1 mps 730 mmHg 59%
    16:00 +7°C° 0 mm 1 mps 729 mmHg 65%
    17:00 +3°C° 0 mm 0 mps 729 mmHg 71%
    18:00 +1°C° 0 mm 0 mps 729 mmHg 76%
    19:00 0°C° 0 mm 0 mps 729 mmHg 77%
    20:00 0°C° 0 mm 0 mps 729 mmHg 78%
    21:00 +1°C° 0 mm 1 mps 729 mmHg 79%
    22:00 +1°C° 0 mm 1 mps 729 mmHg 78%
    23:00 +1°C° 0 mm 1 mps 728 mmHg 77%

    Day after tomorrow, 21 February, Tuesday

    Time Temperature Precipitation Wind Pressure Humidity
    00:00 +1°C° 0 mm 1 mps 728 mmHg 77%
    01:00 +1°C° 0 mm 1 mps 728 mmHg 76%
    02:00 +1°C° 0 mm 1 mps 728 mmHg 74%
    03:00 +1°C° 0 mm 1 mps 727 mmHg 73%
    04:00 -1°C° 0 mm 2 mps 727 mmHg 72%
    05:00 -1°C° 0 mm 2 mps 727 mmHg 71%
    06:00 -1°C° 0 mm 2 mps 727 mmHg 70%
    07:00 +2°C° 0 mm 2 mps 727 mmHg 67%
    08:00 +4°C° 0 mm 2 mps 727 mmHg 64%
    09:00 +5°C° 0 mm 2 mps 727 mmHg 62%
    10:00 +6°C° 0 mm 2 mps 726 mmHg 60%
    11:00 +8°C° 0 mm 2 mps 726 mmHg 58%
    12:00 +9°C° 0 mm 2 mps 725 mmHg 56%
    13:00 +9°C° 0 mm 2 mps 725 mmHg 56%
    14:00 +9°C° 0 mm 3 mps 724 mmHg 56%
    15:00 +10°C° 0 mm 3 mps 724 mmHg 56%
    16:00 +8°C° 0 mm 2 mps 724 mmHg 61%
    17:00 +6°C° 0 mm 2 mps 724 mmHg 66%
    18:00 +4°C° 0 mm 2 mps 724 mmHg 72%
    19:00 +4°C° 0 mm 2 mps 724 mmHg 71%
    20:00 +3°C° 0 mm 2 mps 725 mmHg 70%
    21:00 +2°C° 0 mm 3 mps 725 mmHg 69%
    22:00 +2°C° 0 mm 3 mps 725 mmHg 68%
    23:00 +2°C° 0 mm 3 mps 725 mmHg 66%

    22 February, Wednesday

    Time Temperature Precipitation Wind Pressure Humidity
    00:00 +1°C° 0 mm 3 mps 725 mmHg 64%
    01:00 +1°C° 0 mm 3 mps 725 mmHg 64%
    02:00 +1°C° 0 mm 3 mps 725 mmHg 63%
    03:00 0°C° 0 mm 4 mps 725 mmHg 63%
    04:00 0°C° 0 mm 4 mps 725 mmHg 63%
    05:00 0°C° 0 mm 4 mps 725 mmHg 63%
    06:00 0°C° 0 mm 4 mps 725 mmHg 63%
    07:00 +1°C° 0 mm 4 mps 725 mmHg 61%
    08:00 +4°C° 0 mm 4 mps 725 mmHg 59%
    09:00 +5°C° 0 mm 4 mps 726 mmHg 57%
    10:00 +6°C° 0 mm 4 mps 725 mmHg 54%
    11:00 +8°C° 0 mm 4 mps 725 mmHg 52%
    12:00 +10°C° 0 mm 4 mps 725 mmHg 49%
    13:00 +10°C° 0 mm 4 mps 725 mmHg 50%
    14:00 +10°C° 0 mm 4 mps 724 mmHg 51%
    15:00 +10°C° 0 mm 3 mps 724 mmHg 51%
    16:00 +8°C° 0 mm 3 mps 724 mmHg 56%
    17:00 +5°C° 0 mm 3 mps 724 mmHg 61%
    18:00 +4°C° 0 mm 2 mps 725 mmHg 65%
    19:00 +4°C° 0 mm 2 mps 725 mmHg 65%
    20:00 +3°C° 0 mm 3 mps 726 mmHg 64%
    21:00 +3°C° 0 mm 3 mps 726 mmHg 64%
    22:00 +3°C° 0 mm 3 mps 726 mmHg 64%
    23:00 +2°C° 0 mm 3 mps 726 mmHg 64%

    23 February, Thursday

    Time Temperature Precipitation Wind Pressure Humidity
    00:00 +2°C° 0 mm 3 mps 726 mmHg 64%
    01:00 +2°C° 0 mm 3 mps 726 mmHg 64%
    02:00 +2°C° 0 mm 3 mps 725 mmHg 64%
    03:00 +1°C° 0 mm 4 mps 725 mmHg 64%
    04:00 +1°C° 0 mm 4 mps 726 mmHg 65%
    05:00 0°C° 0 mm 4 mps 726 mmHg 66%
    06:00 0°C° 0 mm 4 mps 726 mmHg 67%
    07:00 +3°C° 0 mm 4 mps 727 mmHg 64%
    08:00 +4°C° 0 mm 4 mps 727 mmHg 61%
    09:00 +5°C° 0 mm 4 mps 727 mmHg 59%
    10:00 +7°C° 0 mm 4 mps 727 mmHg 57%
    11:00 +8°C° 0 mm 4 mps 727 mmHg 55%
    12:00 +10°C° 0 mm 4 mps 727 mmHg 53%
    13:00 +10°C° 0 mm 3 mps 727 mmHg 53%
    14:00 +11°C° 0 mm 3 mps 727 mmHg 53%
    15:00 +11°C° 0 mm 3 mps 727 mmHg 53%
    16:00 +9°C° 0 mm 2 mps 727 mmHg 58%
    17:00 +7°C° 0 mm 2 mps 727 mmHg 63%
    18:00 +6°C° 0 mm 1 mps 728 mmHg 68%
    19:00 +6°C° 0 mm 1 mps 728 mmHg 67%
    20:00 +5°C° 0 mm 1 mps 728 mmHg 66%
    21:00 +5°C° 0 mm 1 mps 729 mmHg 66%
    22:00 +4°C° 0 mm 2 mps 729 mmHg 64%
    23:00 +4°C° 0 mm 2 mps 729 mmHg 63%

    24 February, Friday

    Time Temperature Precipitation Wind Pressure Humidity
    00:00 +4°C° 0 mm 2 mps 729 mmHg 62%
    01:00 +3°C° 0 mm 3 mps 729 mmHg 62%
    02:00 +2°C° 0 mm 3 mps 729 mmHg 63%
    03:00 +2°C° 0 mm 3 mps 728 mmHg 63%
    04:00 +2°C° 0 mm 3 mps 728 mmHg 64%
    05:00 +1°C° 0 mm 4 mps 728 mmHg 64%
    06:00 +1°C° 0 mm 4 mps 728 mmHg 65%
    07:00 +4°C° 0 mm 4 mps 728 mmHg 62%
    08:00 +5°C° 0 mm 4 mps 728 mmHg 60%
    09:00 +7°C° 0 mm 4 mps 728 mmHg 57%
    10:00 +8°C° 0 mm 4 mps 728 mmHg 55%
    11:00 +10°C° 0 mm 4 mps 728 mmHg 53%
    12:00 +12°C° 0 mm 4 mps 727 mmHg 51%
    13:00 +12°C° 0 mm 4 mps 727 mmHg 51%
    14:00 +13°C° 0 mm 4 mps 727 mmHg 51%
    15:00 +13°C° 0 mm 4 mps 727 mmHg 51%
    16:00 +11°C° 0 mm 3 mps 727 mmHg 56%
    17:00 +9°C° 0 mm 2 mps 727 mmHg 61%
    18:00 +7°C° 0 mm 2 mps 728 mmHg 66%
    19:00 +7°C° 0 mm 2 mps 728 mmHg 66%
    20:00 +7°C° 0 mm 2 mps 728 mmHg 66%
    21:00 +6°C° 0 mm 2 mps 728 mmHg 66%
    22:00 +6°C° 0 mm 2 mps 728 mmHg 65%
    23:00 +6°C° 0 mm 2 mps 728 mmHg 63%
    Show more